Date String (YYYY-MM-DD hh:mm:ss) UTC,Instrument flags,Ambient pressure (hPa),Sample flow (lpm),Bypass flow (lpm),Sample temperature (°C),Ambient temperature (°C),ASC tube jacket temperature (°C),LED temperature (°C),Box temperature (°C),Sample RH (%),Span deviation,Mass concentration (μg/m³),Mass concentration (μg/m³),Mass concentration (μg/m³)
DateTimeUTC,F1_M11,P_M11,Q1_M11,Q2_M11,T1_M11,T2_M11,T3_M11,T4_M11,T5_M11,U1_M11,ZSPAN_M11,X2_M11,X0_M11,X1_M11
2021-11-24 05:00:00,,0815.2,5.00,0.00,26.7,25.6,00.0,35.7,28.4,09.0,0000.0,0002.44,0007.24,0001.77
2021-11-24 05:01:00,,0815.2,5.00,0.00,26.7,25.6,00.0,35.7,28.4,09.0,0000.0,0002.42,0007.48,0001.75
2021-11-24 05:02:00,,0815.2,5.00,0.00,26.7,25.7,00.0,35.7,28.4,09.0,0000.0,0002.42,0007.28,0001.73
2021-11-24 05:03:00,,0815.1,5.01,0.00,26.7,25.7,00.0,35.7,28.4,08.9,0000.0,0002.40,0006.83,0001.73
2021-11-24 05:04:00,,0815.1,4.99,0.00,26.7,25.7,00.0,35.7,28.4,09.0,0000.0,0002.34,0006.35,0001.73
2021-11-24 05:05:00,,0815.0,5.01,0.00,26.7,25.7,00.0,35.7,28.4,09.0,0000.0,0002.28,0006.02,0001.72
2021-11-24 05:06:00,,0815.0,5.00,0.00,26.7,25.7,00.0,35.7,28.3,09.1,0000.0,0002.23,0005.83,0001.71
2021-11-24 05:07:00,,0815.1,4.99,0.00,26.7,25.7,00.0,35.7,28.3,09.1,0000.0,0002.17,0005.66,0001.70
2021-11-24 05:08:00,,0815.3,5.00,0.00,26.7,25.7,00.0,35.7,28.4,09.0,0000.0,0002.19,0005.72,0001.71
2021-11-24 05:09:00,,0815.2,5.01,0.00,26.7,25.7,00.0,35.7,28.4,09.1,0000.0,0002.23,0005.84,0001.70
2021-11-24 05:10:00,,0815.3,5.00,0.00,26.7,25.7,00.0,35.7,28.4,09.1,0000.0,0002.23,0005.44,0001.69
2021-11-24 05:11:00,,0815.3,4.99,0.00,26.7,25.7,00.0,35.7,28.3,09.1,0000.0,0002.17,0003.74,0001.67
2021-11-24 05:12:00,,0815.4,5.00,0.00,26.7,25.7,00.0,35.7,28.4,09.1,0000.0,0002.17,0003.41,0001.69
2021-11-24 05:13:00,,0815.3,4.99,0.00,26.7,25.7,00.0,35.7,28.4,09.1,0000.0,0002.18,0003.47,0001.69
2021-11-24 05:14:00,,0815.4,5.02,0.00,26.7,25.8,00.0,35.7,28.4,09.1,0000.0,0002.18,0003.49,0001.70
2021-11-24 05:15:00,,0815.4,5.00,0.00,26.7,25.8,00.0,35.7,28.4,09.1,0000.0,0002.19,0003.63,0001.68
2021-11-24 05:16:00,,0815.4,5.00,0.00,26.7,25.8,00.0,35.7,28.5,09.1,0000.0,0002.18,0003.62,0001.67
2021-11-24 05:17:00,,0815.5,4.99,0.00,26.7,25.8,00.0,35.7,28.5,09.0,0000.0,0002.19,0003.76,0001.66
2021-11-24 05:18:00,,0815.4,5.01,0.00,26.7,25.8,00.0,35.7,28.5,08.9,0000.0,0002.20,0003.96,0001.66
2021-11-24 05:19:00,,0815.3,5.00,0.00,26.8,25.8,00.0,35.8,28.5,08.9,0000.0,0002.21,0003.93,0001.66
2021-11-24 05:20:00,,0815.4,4.99,0.00,26.8,25.8,00.0,35.8,28.6,09.1,0000.0,0002.18,0003.73,0001.67
2021-11-24 05:21:00,,0815.3,4.98,0.00,26.8,25.8,00.0,35.8,28.6,09.2,0000.0,0002.15,0003.63,0001.68
2021-11-24 05:22:00,,0815.2,5.01,0.00,26.8,25.8,00.0,35.8,28.5,09.2,0000.0,0002.20,0003.79,0001.69
2021-11-24 05:23:00,,0815.4,4.99,0.00,26.7,25.8,00.0,35.8,28.5,09.2,0000.0,0002.24,0004.94,0001.69
2021-11-24 05:24:00,,0815.2,5.02,0.00,26.7,25.7,00.0,35.8,28.4,09.2,0000.0,0002.25,0005.02,0001.68
2021-11-24 05:25:00,,0815.0,5.00,0.00,26.7,25.6,00.0,35.8,28.3,09.3,0000.0,0002.29,0005.65,0001.69
2021-11-24 05:26:00,,0814.9,4.99,0.00,26.7,25.6,00.0,35.8,28.4,09.3,0000.0,0002.28,0005.79,0001.69
2021-11-24 05:27:00,,0814.9,5.00,0.00,26.7,25.6,00.0,35.8,28.4,09.3,0000.0,0002.29,0007.03,0001.69
2021-11-24 05:28:00,,0815.0,5.00,0.00,26.7,25.6,00.0,35.7,28.3,09.4,0000.0,0002.29,0006.99,0001.70
2021-11-24 05:29:00,,0815.1,5.00,0.00,26.6,25.6,00.0,35.7,28.3,09.5,0000.0,0002.31,0006.84,0001.71
2021-11-24 05:30:00,,0815.1,5.00,0.00,26.6,25.6,00.0,35.7,28.3,09.5,0000.0,0002.31,0006.85,0001.71
2021-11-24 05:31:00,,0815.2,4.99,0.00,26.6,25.5,00.0,35.7,28.2,09.5,0000.0,0002.31,0006.90,0001.70
2021-11-24 05:32:00,,0815.2,4.99,0.00,26.6,25.5,00.0,35.7,28.3,09.5,0000.0,0002.34,0007.02,0001.69
2021-11-24 05:33:00,,0815.2,5.01,0.00,26.6,25.5,00.0,35.7,28.2,09.5,0000.0,0002.33,0006.94,0001.69
2021-11-24 05:34:00,,0815.3,5.00,0.00,26.6,25.5,00.0,35.7,28.3,09.5,0000.0,0002.29,0006.16,0001.69
2021-11-24 05:35:00,,0815.2,4.99,0.00,26.6,25.6,00.0,35.7,28.3,09.5,0000.0,0002.27,0006.24,0001.70
2021-11-24 05:36:00,,0815.4,5.01,0.00,26.6,25.6,00.0,35.7,28.2,09.5,0000.0,0002.25,0005.98,0001.70
2021-11-24 05:37:00,,0815.3,5.00,0.00,26.6,25.6,00.0,35.7,28.3,09.5,0000.0,0002.26,0005.75,0001.70
2021-11-24 05:38:00,,0815.3,4.99,0.00,26.6,25.5,00.0,35.7,28.3,09.5,0000.0,0002.24,0004.61,0001.69
2021-11-24 05:39:00,,0815.3,5.01,0.00,26.6,25.5,00.0,35.7,28.3,09.6,0000.0,0002.25,0004.38,0001.69
2021-11-24 05:40:00,,0815.2,4.98,0.00,26.6,25.5,00.0,35.7,28.2,09.6,0000.0,0002.28,0004.46,0001.70
2021-11-24 05:41:00,,0815.3,5.02,0.00,26.6,25.5,00.0,35.7,28.3,09.4,0000.0,0002.26,0004.31,0001.71
2021-11-24 05:42:00,,0815.3,4.99,0.00,26.6,25.5,00.0,35.7,28.3,09.4,0000.0,0002.29,0004.39,0001.72
2021-11-24 05:43:00,,0815.2,5.01,0.00,26.6,25.5,00.0,35.7,28.3,09.3,0000.0,0002.39,0005.59,0001.73
2021-11-24 05:44:00,,0815.2,4.99,0.00,26.6,25.6,00.0,35.7,28.3,09.3,0000.0,0002.38,0005.73,0001.72
2021-11-24 05:45:00,,0815.1,5.01,0.00,26.6,25.6,00.0,35.7,28.3,09.6,0000.0,0002.37,0006.73,0001.72
2021-11-24 05:46:00,,0815.0,5.00,0.00,26.6,25.6,00.0,35.7,28.3,10.0,0000.0,0002.42,0006.87,0001.73
2021-11-24 05:47:00,,0815.0,5.00,0.00,26.6,25.6,00.0,35.7,28.2,10.0,0000.0,0002.42,0006.33,0001.74
2021-11-24 05:48:00,,0815.2,5.01,0.00,26.6,25.5,00.0,35.7,28.2,10.1,0000.0,0002.43,0006.36,0001.75
2021-11-24 05:49:00,,0815.3,5.01,0.00,26.6,25.6,00.0,35.7,28.2,10.1,0000.0,0002.46,0006.41,0001.76
2021-11-24 05:50:00,,0815.3,5.00,0.00,26.6,25.5,00.0,35.7,28.2,10.1,0000.0,0002.47,0006.49,0001.77
2021-11-24 05:51:00,,0815.3,5.00,0.00,26.6,25.5,00.0,35.7,28.2,10.1,0000.0,0002.49,0006.62,0001.77
2021-11-24 05:52:00,,0815.3,5.00,0.00,26.6,25.5,00.0,35.7,28.2,10.1,0000.0,0002.53,0006.75,0001.78
2021-11-24 05:53:00,,0815.4,5.00,0.00,26.5,25.5,00.0,35.6,28.2,10.1,0000.0,0002.57,0007.08,0001.79
2021-11-24 05:54:00,,0815.4,5.00,0.00,26.5,25.5,00.0,35.6,28.2,10.1,0000.0,0002.50,0006.71,0001.78
2021-11-24 05:55:00,,0815.3,5.01,0.00,26.6,25.5,00.0,35.6,28.2,10.0,0000.0,0002.48,0006.11,0001.78
2021-11-24 05:56:00,,0815.4,4.99,0.00,26.6,25.5,00.0,35.6,28.2,10.1,0000.0,0002.54,0005.48,0001.80
2021-11-24 05:57:00,,0815.4,5.00,0.00,26.5,25.5,00.0,35.6,28.2,10.0,0000.0,0002.51,0005.28,0001.80
2021-11-24 05:58:00,,0815.4,4.98,0.00,26.5,25.5,00.0,35.6,28.2,10.1,0000.0,0002.52,0005.49,0001.80
2021-11-24 05:59:00,,0815.4,5.00,0.00,26.5,25.5,00.0,35.6,28.2,10.2,0000.0,0002.51,0005.48,0001.79
